User: anonymous   Login
Location: Unspecified
(0.0000°N, 0.0000°E)
Time: 07:15:20
(UTC+00:00)
Language:

Kosmos-1553 - Orbit

View from above orbital plane
View from above orbital plane
View from above satellite
View from above satellite

Ground track
Ground track

The orbit data is extracted from the following two-line orbital elements,

1 14973U 84046A   24113.95739198  .00000175  00000-0  16572-3 0  9995
2 14973  82.9320 114.9855 0031022 307.0965 115.0583 13.75481886  3772
Epoch (UTC): 22 April 2024 22:58:38
Eccentricity: 0.0031022
inclination: 82.9320°
perigee height: 957 km
apogee height: 1003 km
right ascension of ascending node: 114.9855°
argument of perigee: 307.0965°
revolutions per day: 13.75481886
mean anomaly at epoch: 115.0583°
orbit number at epoch: 377

The dashed part of the orbit path shows where the satellite is in the earth's shadow,  

DLR